LEMUR-2-URAMCHANSOL (43183 NORAD) Tracking and Keplerian Element Data

This shows tracking and keplerian element data for the satellite.

Feedback or suggestion? Click here.




ElementValue
Catalog43183
NameLEMUR-2-URAMCHANSOL
Epoch Orbit38419
Epoch Day34.81283112
Epoch Year2025
RAAN308.9063
Inclination97.5589
Eccentricity0.0003906
Argument of Perigee209.144
Mean Anonmoly150.959
Mean Motion15.44138022
Decay Rate0.00088942
L11 43183U 18014D 25034.81283112 .00088942 00000+0 19244-2 0 9995
L22 43183 97.5589 308.9063 0003906 209.1440 150.9590 15.44138022384195



Live tracking and technical data element details for LEMUR-2-URAMCHANSOL (NORAD 43183). LEMUR-2-URAMCHANSOL can be tracked NOW for your location showing map with azimuth and elevation plus other details from your city location.







IsCatalogInMostPopularTable: catalog: 43183, numindb: 340
Update: records affected: 1



GetName: 43183 LEMUR-2-URAMCHANSOL

Hit Count: updated at: Fri, 16 May 2025 10:29:44 GMT